Regional Weather Roundup
Issued by NWS

Home | Current Version | Previous Version | Text Only | Print | Product List | Glossary On
Versions: 1 2 3 4 5 6 7 8 9 10 11 12 13 14 15 16 17 18 19 20 21 22 23 24 25 26 27 28 29 30 31 32 33 34 35 36 37 38 39 40 41 42 43 44 45 46 47 48 49 50
000
ASUS43 KOAX 031602
RWRNE

WEATHER ROUNDUP FOR NEBRASKA
NATIONAL WEATHER SERVICE OMAHA NE
1100 AM CDT SUN MAY 03 2015

NOTES: SATELLITE DATA IS BEING USED TO AUGMENT CLOUD COVER ABOVE
       12000 FEET.
       "FAIR" INDICATES FEW OR NO CLOUDS BELOW 12,000 FEET WITH NO
       SIGNIFICANT WEATHER AND/OR OBSTRUCTIONS TO VISIBILITY.

  * THESE STATIONS DO NOT REPORT WEATHER SUCH AS RAIN...SNOW OR FOG.

NEZ001>004-019>022-054>056-031700-
NEBRASKA PANHANDLE

CITY           SKY/WX    TMP DP  RH WIND       PRES   REMARKS
SCOTTSBLUFF    SUNNY     64  35  34 N15       29.94R
ALLIANCE       SUNNY     61  37  41 N21G29    29.92R
CHADRON        MOSUNNY   59  39  47 NE20      29.95S
KIMBALL        SUNNY     68  37  32 N18       29.94R
SIDNEY         SUNNY     68  40  35 N20G29    29.92R
$$

NEZ057>060-069>072-079>082-031700-
SOUTHWEST NEBRASKA

CITY           SKY/WX    TMP DP  RH WIND       PRES   REMARKS
NORTH PLATTE   SUNNY     72  49  44 W10       29.80R
IMPERIAL       SUNNY     77  40  26 NW17G24   29.84R
MCCOOK         SUNNY     75  47  36 SW8       29.82R
$$

NEZ005>010-023>029-035>040-094-031700-
NORTH CENTRAL NEBRASKA

CITY           SKY/WX    TMP DP  RH WIND       PRES   REMARKS
VALENTINE      MOSUNNY   65  40  39 N23G30    29.85R
AINSWORTH      MOSUNNY   65  43  45 N25G33    29.81R
BROKEN BOW     SUNNY     80  45  28 VRB7      29.76R
ORD            PTSUNNY   72  48  42 CALM      29.74R
$$

NEZ041-046>049-061>064-073>077-083>087-031700-
SOUTH CENTRAL NEBRASKA

CITY           SKY/WX    TMP DP  RH WIND       PRES   REMARKS
GRAND ISLAND   PTSUNNY   77  52  41 W8        29.76S
AURORA         PTSUNNY   72  51  46 SW6       29.76R
HASTINGS       SUNNY     79  46  31 W9        29.76S
KEARNEY *      SUNNY     75  48  38 W7        29.78S
$$

NEZ011>018-030>034-042>045-031700-
NORTHEAST NEBRASKA

CITY           SKY/WX    TMP DP  RH WIND       PRES   REMARKS
NORFOLK        MOSUNNY   73  58  59 S7        29.73S
BLAIR          SUNNY     71  59  66 S10       29.75S
COLUMBUS *     MOSUNNY   72  57  60 SW13      29.76R
FREMONT        SUNNY     74  60  62 S12       29.74S
TEKAMAH        MOSUNNY   74  60  61 S14       29.75R
$$

NEZ050>053-065>068-078-088>093-031700-
SOUTHEAST NEBRASKA

CITY           SKY/WX    TMP DP  RH WIND       PRES   REMARKS
LINCOLN        SUNNY     77  58  51 SW14      29.75R
OMAHA EPPLEY   PTSUNNY   73  60  63 SW13      29.75S
FALLS CITY     SUNNY     75  58  55 S15G28    29.78F
PLATTSMOUTH    SUNNY     73  57  56 SW15      29.76R
$$

NEZ044-045-051>053-067-031700-
OMAHA AREA

CITY           SKY/WX    TMP DP  RH WIND       PRES   REMARKS
OMAHA EPPLEY   PTSUNNY   73  60  63 SW13      29.75S
BLAIR          SUNNY     71  59  66 S10       29.75S
FREMONT        SUNNY     74  60  62 S12       29.74S
OFFUTT AFB     SUNNY     74  60  61 S13       29.75R
PLATTSMOUTH    SUNNY     73  57  56 SW15      29.76R
$$



USA.gov is the U.S. government's official web portal to all federal, state and local government web resources and services.